Location: El Manguito
(10.2358°N, 67.3634°W)
Time: 20:34:14
(UTC+00:00)

GPS 2-12 Rocket1 - Visible Passes

Search period start: 05 December 2024 00:00
Search period end: 15 December 2024 00:00
Orbit: 569 x 626 km, 20.0° (Epoch: 05 December)

Date Brightness Start Highest point End Pass type
(mag) Time Alt. Az. Time Alt. Az. Time Alt. Az.
05 Dec 4.3 09:11:04 25° N 09:11:45 26° N 09:15:36 10° ENE visible
06 Dec 4.2 09:19:16 25° NNW 09:20:40 30° N 09:24:43 10° ENE visible
07 Dec 3.9 09:27:28 25° NW 09:29:31 38° NNE 09:33:49 10° E visible
08 Dec 3.4 09:35:39 22° NW 09:38:18 53° NNE 09:42:48 10° E visible
08 Dec 5.2 23:25:50 10° S 23:27:58 13° SSE 23:29:14 12° SE visible
09 Dec 5.8 08:07:17 13° ENE 08:07:17 13° ENE 08:07:56 10° ENE visible
09 Dec 3.0 09:43:50 19° WNW 09:47:03 78° NNE 09:51:39 10° ESE visible
09 Dec 4.6 23:33:20 10° SSW 23:36:41 21° SSE 23:37:23 20° SE visible
10 Dec 5.3 08:15:27 19° ENE 08:15:27 19° ENE 08:16:59 10° E visible
10 Dec 3.1 09:52:00 15° W 09:55:44 69° SSW 10:00:18 10° ESE visible
10 Dec 3.9 23:41:23 10° SW 23:45:22 33° SSE 23:45:33 33° SSE visible
11 Dec 4.8 08:23:37 28° E 08:23:37 28° E 08:25:52 10° E visible
11 Dec 3.8 10:00:10 10° W 10:04:24 42° SSW 10:08:45 10° SE visible
11 Dec 3.3 23:49:43 10° WSW 23:53:42 53° S 23:53:42 53° S visible
12 Dec 4.3 08:31:46 39° ESE 08:31:46 39° ESE 08:34:38 10° ESE visible
12 Dec 4.5 10:09:15 10° W 10:13:04 27° SSW 10:16:55 10° SE visible
12 Dec 3.4 23:58:16 10° WSW 00:01:51 58° WSW 00:01:51 58° WSW visible
13 Dec 4.0 08:39:54 42° SSE 08:39:54 42° SSE 08:43:10 10° ESE visible
14 Dec 4.1 00:07:00 10° W 00:09:59 39° WNW 00:09:59 39° WNW visible
14 Dec 4.2 08:48:01 33° S 08:48:01 33° S 08:51:30 10° SE visible
14 Dec 3.2 22:32:34 10° WSW 22:37:03 67° SSE 22:41:26 10° ENE visible
